Home   Weather   Pago Pago   Past weeks

Flag for American Samoa Past Weather in Pago Pago, American Samoa — Yesterday and Last 2 Weeks

Now
86 °F

Scattered clouds.


Feels Like: 103 °F
Forecast: 77 / 84 °F
Wind: 9 mph from Southeast

Location: Pago Pago / Int. Airp.

Current Time: Jun 26, 2017 at 2:58:45 pm

Latest Report: Jun 26, 2017 at 1:51 pm


Visibility: 12 mi

Pressure: 29.86 "Hg

Humidity: 88%

Dew Point: 82 °F

Location of Pago PagoLocation

Past Weather in Pago Pago — Graph

°F

Pago Pago Temperature Yesterday

Maximum temperature yesterday: 85 °F (at 11:51 am)
Minimum temperature yesterday: 80 °F (at 3:50 am)
Average temperature yesterday: 82 °F

High & Low Weather Summary for the Past Weeks

 TemperatureHumidityPressure
High87 °F (Jun 11, 12:00 pm)100% (Jun 13, 3:50 am)29.99 "Hg (Jun 13, 3:50 am)
Low73 °F (Jun 20, 6:50 pm)68% (Jun 18, 10:51 am)29.81 "Hg (Jun 19, 2:51 pm)
Average81 °F91%29.89 "Hg
* Reported Jun 11 12:00 pm — Jun 26 12:50 pm, Pago Pago. Weather by CustomWeather, © 2017

Note: Actual official high and low records may vary slightly from our data, if they occured in-between our weather recording intervals... More about our weather records

Advertising

Pago Pago Weather History for the Previous 24 Hours

Scroll right to see more
 ConditionsComfort  
Time TempWeatherWind HumidityBarometerVisibility
12:50 pm
Mon, Jun 26
84 °FScattered clouds.10 mph94%29.90 "Hg12 mi
11:50 am86 °FBroken clouds.10 mph89%29.91 "Hg12 mi
11:00 am84 °FBroken clouds.10 mph91%29.93 "Hg12 mi
10:50 am84 °FBroken clouds.10 mph89%29.93 "Hg12 mi
10:00 am85 °FScattered clouds.13 mph90%29.92 "Hg12 mi
9:50 am85 °FScattered clouds.13 mph90%29.92 "Hg12 mi
9:00 am83 °FBroken clouds.12 mph95%29.92 "Hg12 mi
8:50 am83 °FBroken clouds.12 mph95%29.92 "Hg12 mi
8:00 am81 °FBroken clouds.9 mph97%29.90 "Hg12 mi
7:50 am81 °FBroken clouds.9 mph97%29.90 "Hg12 mi
7:00 am81 °FBroken clouds.10 mph98%29.88 "Hg11 mi
6:50 am81 °FBroken clouds.10 mph98%29.88 "Hg11 mi
6:00 am80 °FPartly cloudy.9 mph97%29.87 "Hg10 mi
5:53 am80 °FPartly cloudy.9 mph97%29.87 "Hg10 mi
4:50 am80 °FOvercast.8 mph98%29.87 "Hg10 mi
3:52 am80 °FSprinkles. Overcast.9 mph98%29.87 "Hg7 mi
3:00 am80 °FPassing clouds.8 mph97%29.87 "Hg10 mi
2:50 am81 °FPassing clouds.8 mph94%29.87 "Hg10 mi
2:00 am80 °FPassing clouds.8 mph96%29.88 "Hg10 mi
1:50 am80 °FPassing clouds.8 mph96%29.88 "Hg10 mi
1:00 am80 °FPassing clouds.8 mph98%29.89 "Hg10 mi
12:50 am81 °FPassing clouds.8 mph100%29.89 "Hg10 mi
12:00 am81 °FPassing clouds.8 mph95%29.90 "Hg10 mi
11:50 pm
Sun, Jun 25
81 °FPassing clouds.8 mph95%29.90 "Hg10 mi
11:00 pm81 °FPassing clouds.9 mph94%29.90 "Hg10 mi
10:57 pm81 °FPassing clouds.9 mph94%29.90 "Hg10 mi
10:00 pm81 °FPassing clouds.10 mph95%29.90 "Hg10 mi
9:50 pm81 °FPassing clouds.10 mph95%29.90 "Hg10 mi
9:00 pm81 °FPassing clouds.9 mph94%29.90 "Hg10 mi
8:50 pm81 °FPassing clouds.9 mph94%29.90 "Hg10 mi
8:00 pm81 °FPassing clouds.9 mph94%29.88 "Hg10 mi
7:50 pm81 °FPassing clouds.9 mph94%29.88 "Hg10 mi
6:50 pm81 °FPassing clouds.10 mph92%29.86 "Hg11 mi
5:50 pm82 °FScattered clouds.7 mph89%29.86 "Hg12 mi
4:00 pm83 °FPassing clouds.10 mph85%29.85 "Hg12 mi
3:52 pm83 °FPassing clouds.10 mph85%29.85 "Hg12 mi
2:50 pm84 °FScattered clouds.9 mph84%29.85 "Hg12 mi
Weather by CustomWeather, © 2017

See weather overviewHow to use our weather pages